Regional Weather Roundup
Issued by NWS

Home | Current Version | Previous Version | Text Only | Print | Product List | Glossary On
Versions: 1 2 3 4 5 6 7 8 9 10 11 12 13 14 15 16 17 18 19 20 21 22 23 24 25 26 27 28 29 30 31 32 33 34 35 36 37 38 39 40 41 42 43 44 45 46 47 48 49 50
857
ASUS44 KJAN 301510
RWRMS

MISSISSIPPI HOURLY WEATHER ROUNDUP
NATIONAL WEATHER SERVICE JACKSON MS
1000 AM CDT WED JUL 30 2014

NOTE: "FAIR: INDICATES FEW OR NO CLOUDS BELOW 12,000 FEET WITH NO
SIGNIFICANT WEATHER AND/OR OBSTRUCTIONS TO VISIBILITY.

MSZ001>002-007>008-010>013-018>021-025>028-034>036-301600-
NORTHWEST MISSISSIPPI

CITY           SKY/WX    TMP DP  RH WIND       PRES   REMARKS
CLARKSDALE     FAIR      73  63  68 SE3       30.14S
CLEVELAND      FAIR      75  61  60 CALM      30.12S
GREENWOOD      SUNNY     76  57  51 E6        30.13S
GREENVILLE     SUNNY     76  60  57 E3        30.12S
GRENADA        FAIR      73  59  60 CALM      30.13S
OLIVE BRANCH   MOSUNNY   73  57  56 SE6       30.14
OXFORD         FAIR      72  57  60 NE5       30.15S
TUNICA         MOSUNNY   73  59  60 SE5       30.14S
$$

MSZ003>006-009-014>017-022>024-029>033-037>039-301600-
NORTHEAST MISSISSIPPI

CITY           SKY/WX    TMP DP  RH WIND       PRES   REMARKS
BELMONT        FAIR      73  61  66 CALM      30.13S
COLUMBUS AFB   SUNNY     72  58  63 VRB1      30.13R
CORINTH        FAIR      73  57  56 CALM      30.13S
GOLDN TRIANGLE SUNNY     73  61  64 N3        30.14R
STARKVILLE     FAIR      73  59  60 CALM      30.13R
TUPELO         SUNNY     75  58  55 CALM      30.12S
$$

MSZ040-058-301600-
CENTRAL MISSISSIPPI

CITY           SKY/WX    TMP DP  RH WIND       PRES   REMARKS
JACKSON INTL   MOSUNNY   76  57  51 E6        30.12F
JACKSON HAWKNS SUNNY     76  55  48 NE5       30.12F
MERIDIAN KEY   SUNNY     77  55  46 VRB7      30.11F
MERIDIAN NAS   MOSUNNY   76  57  51 N7        30.12S
RAYMOND        FAIR      75  72  88 CALM      30.13S
VICKSBURG      SUNNY     77  58  51 SE6       30.12F
$$

MSZ059>079-301600-
SOUTH MISSISSIPPI

CITY           SKY/WX    TMP DP  RH WIND       PRES   REMARKS
BROOKHAVEN     FAIR      73  59  60 E5        30.14S
COLUMBIA       FAIR      77  59  53 VRB6G12   30.10S
HATTIESBURG    SUNNY     77  58  51 VRB3      30.11S
MCCOMB         SUNNY     76  56  49 NE7       30.11F
NATCHEZ        SUNNY     75  61  60 E6        30.12F
PINE BELT      SUNNY     75  55  50 NE8       30.12S
$$

MSZ080>082-301600-
COASTAL MISSISSIPPI

CITY           SKY/WX    TMP DP  RH WIND       PRES   REMARKS
BAY ST LOUIS   SUNNY    N/A N/A N/A E5        30.08S
BILOXI         SUNNY     80  57  45 E8        30.07R
PASCAGOULA     SUNNY     79  60  52 NE7       30.07R
GULFPORT       SUNNY     83  57  41 N6        30.07R
$$



USA.gov is the U.S. government's official web portal to all federal, state and local government web resources and services.